Tracking 29493 objects as of 8-Sep-2024
HD Live streaming from Space Station
objects crossing your sky now

STARLINK-5775

Track STARLINK-5775 now!
10-day predictions
STARLINK-5775 is classified as:


NORAD ID: 56503
Int'l Code: 2023-065A
Perigee: 564.9 km
Apogee: 567.6 km
Inclination: 43.0 °
Period: 95.8 minutes
Semi major axis: 6937 km
RCS: Unknown
Launch date: May 14, 2023
Source: United States (US)
Launch site: AIR FORCE EASTERN TEST RANGE (AFETR)
Your satellite tracking list
Your tracking list is empty




NASA's NSSDC Master Catalog

Two Line Element Set (TLE):
1 56503U 23065A   24251.46840334 -.00000300  00000-0 -71022-5 0  9993
2 56503  43.0058 309.6070 0001911 272.5369  87.5254 15.02530333 73378
Source of the keplerian elements: AFSPC